San Antonio, TX

9:17 AM CDT on August 30, 2016 (GMT -0500)
Kelly Air Force Base

Weather History for KSKF - December, 2012

Change the Weather History Date:

Sunday, December 30, 2012

  Actual Average Record
Temperature  
Mean Temperature 42 °F -  
Max Temperature 55 °F 63 °F 80 °F (2005)
Min Temperature 30 °F 40 °F 26 °F (2000)
Degree Days  
Heating Degree Days 22    
Moisture  
Dew Point 35 °F    
Average Humidity 64    
Maximum Humidity 94    
Minimum Humidity 29    
Precipitation  
Precipitation 0.00 in - - ()
Sea Level Pressure  
Sea Level Pressure 30.27 in    
Wind  
Wind Speed 6 mph (East)    
Max Wind Speed 14 mph    
Max Gust Speed -    
Visibility 10 miles    
Events      
Averages and records for this station are not official NWS values.
T = Trace of Precipitation, MM = Missing Value Source: NWS Daily Summary

Daily Weather History Graph

Daily Weather History Graph

Search for Another Location

Airport or City:

Trip Planner

Search our weather history database for the weather conditions in past years. The results will help you decide how hot, cold, wet, or windy it might be!

Date:

Astronomy

Dec. 30, 2012 Rise Set
Actual Time 7:28 AM CST 5:46 PM CST
Civil Twilight 7:02 AM CST 6:12 PM CST
Nautical Twilight 6:32 AM CST 6:41 PM CST
Astronomical Twilight 6:03 AM CST 7:10 PM CST
Moon 8:06 PM CST 8:48 AM CST
Length of Visible Light 11h 09m
Length of Day
10h 17m
Waning Gibbous, 95% of the Moon is Illuminated
Dec 30
Waning Gibbous
Jan 4
Last Quarter
Jan 11
New
Jan 18
First Quarter
Jan 26
Full

Hourly Weather History & Observations

Time (CST) Temp. Windchill Dew Point Humidity Pressure Visibility Wind Dir Wind Speed Gust Speed Precip Events Conditions
12:55 AM 33.3 °F - 25.2 °F 72% 30.42 in 10.0 mi Calm Calm - N/A   Clear
1:55 AM 30.4 °F 26.9 °F 24.1 °F 77% 30.41 in 10.0 mi NNW 3.5 mph - N/A   Clear
2:55 AM 30.4 °F 25.6 °F 24.1 °F 77% 30.42 in 10.0 mi NNW 4.6 mph - N/A   Clear
3:55 AM 30.4 °F 24.5 °F 24.8 °F 80% 30.40 in 10.0 mi NE 5.8 mph - N/A   Clear
4:55 AM 32.2 °F 28.9 °F 25.9 °F 78% 30.41 in 10.0 mi NW 3.5 mph - N/A   Mostly Cloudy
5:55 AM 33.8 °F 30.8 °F 27.1 °F 77% 30.40 in 10.0 mi Variable 3.5 mph - N/A   Mostly Cloudy
6:55 AM 38.5 °F 33.4 °F 25.9 °F 61% 30.39 in 10.0 mi East 6.9 mph - N/A   Mostly Cloudy
7:55 AM 40.3 °F 37.1 °F 22.5 °F 49% 30.41 in 10.0 mi East 4.6 mph - N/A   Partly Cloudy
8:55 AM 40.3 °F 35.5 °F 21.4 °F 47% 30.43 in 10.0 mi East 6.9 mph - N/A   Mostly Cloudy
9:55 AM 41.7 °F 37.3 °F 21.6 °F 45% 30.45 in 10.0 mi East 6.9 mph - N/A   Partly Cloudy
10:55 AM 44.4 °F 39.5 °F 21.4 °F 40% 30.42 in 10.0 mi ESE 9.2 mph - N/A   Partly Cloudy
11:55 AM 46.9 °F - 19.9 °F 34% 30.40 in 10.0 mi Variable 4.6 mph - N/A   Partly Cloudy
12:55 PM 50.7 °F - 19.6 °F 29% 30.34 in 10.0 mi East 6.9 mph - N/A   Clear
1:55 PM 50.2 °F - 25.2 °F 38% 30.30 in 10.0 mi ESE 5.8 mph - N/A   Scattered Clouds
2:31 PM 51.8 °F - 26.6 °F 38% 30.27 in 10.0 mi East 6.9 mph - N/A   Mostly Cloudy
2:40 PM 51.8 °F - 26.6 °F 38% 30.27 in 10.0 mi East 5.8 mph - N/A   Mostly Cloudy
2:55 PM 52.5 °F - 28.8 °F 40% 30.25 in 10.0 mi ESE 9.2 mph - N/A   Scattered Clouds
3:32 PM 53.6 °F - 32.0 °F 44% 30.24 in 10.0 mi East 11.5 mph - N/A   Overcast
3:47 PM 53.6 °F - 32.0 °F 44% 30.24 in 10.0 mi East 9.2 mph - N/A   Overcast
3:55 PM 53.6 °F - 32.0 °F 44% 30.23 in 10.0 mi East 8.1 mph - N/A   Overcast
4:55 PM 55.0 °F - 35.6 °F 48% 30.22 in 10.0 mi ESE 9.2 mph - N/A   Overcast
5:55 PM 54.7 °F - 36.5 °F 50% 30.21 in 10.0 mi East 6.9 mph - N/A   Overcast
6:55 PM 55.2 °F - 39.9 °F 56% 30.20 in 10.0 mi ESE 9.2 mph - N/A   Overcast
7:31 PM 55.4 °F - 39.2 °F 54% 30.19 in 10.0 mi East 8.1 mph - N/A   Overcast
7:55 PM 54.7 °F - 40.3 °F 58% 30.19 in 10.0 mi East 8.1 mph - N/A   Overcast
8:01 PM 55.4 °F - 41.0 °F 58% 30.18 in 10.0 mi East 8.1 mph - N/A   Overcast
8:13 PM 55.4 °F - 41.0 °F 58% 30.18 in 10.0 mi East 8.1 mph - N/A   Overcast
8:53 PM 55.4 °F - 44.6 °F 67% 30.19 in 10.0 mi SE 13.8 mph - N/A   Overcast
8:55 PM 54.7 °F - 45.5 °F 71% 30.19 in 10.0 mi SE 12.7 mph - N/A   Overcast
9:25 PM 53.6 °F - 46.4 °F 77% 30.19 in 10.0 mi ESE 11.5 mph - N/A   Overcast
9:42 PM 53.6 °F - 48.2 °F 82% 30.19 in 10.0 mi ESE 9.2 mph - N/A   Overcast
9:50 PM 51.8 °F - 46.4 °F 82% 30.19 in 10.0 mi ESE 11.5 mph - N/A   Overcast
9:55 PM 52.7 °F - 47.5 °F 82% 30.19 in 10.0 mi ESE 10.4 mph - N/A   Overcast
10:12 PM 51.8 °F - 48.2 °F 88% 30.19 in 10.0 mi ESE 10.4 mph - N/A   Overcast
10:35 PM 51.8 °F - 48.2 °F 88% 30.19 in 9.0 mi ESE 11.5 mph - N/A   Overcast
10:37 PM 51.8 °F - 48.2 °F 88% 30.19 in 8.0 mi ESE 9.2 mph - N/A   Light Drizzle
10:46 PM 51.8 °F - 48.2 °F 88% 30.19 in 7.0 mi ESE 8.1 mph - N/A   Overcast
10:55 PM 50.9 °F - 48.6 °F 92% 30.20 in 10.0 mi ESE 8.1 mph - 0.00 in   Overcast
11:00 PM 51.8 °F - 48.2 °F 88% 30.18 in 10.0 mi ESE 8.1 mph - N/A   Overcast
11:23 PM 50.0 °F - 48.2 °F 94% 30.17 in 10.0 mi East 8.1 mph - N/A   Overcast
11:55 PM 50.7 °F - 49.1 °F 94% 30.15 in 9.0 mi East 6.9 mph - N/A   Overcast